Find Starlink 2699

NORAD ID: 48433 Int'l Des: 2021-040 Owner: SPXS Country: US Constellation: starlink operational
LEOCIRCULARSTARLINK_TYPE

リアルタイム位置

3D地球を読み込み中...

Starlink 2699について

説明を読み込み中...

次回通過

Passes for default location (London). Set your location on the main map for personalized predictions.

高度履歴

Loading altitude history...

軌道要素

1 48433U 21040F 26125.60130794 .00002237 00000-0 83831-4 0 9996
2 48433 53.1626 248.0063 0001308 86.1311 273.9840 15.31703803275741
Epoch: May 5, 2026 • Age: 20 hours

現在のステータス

高度 473.5 km
速度 7.63 km/s
衛星直下点 -9.51°S, 148.48°W
打ち上げ日 May 9, 2021
運用期間 4.9 years
タイプ internet

技術仕様

分類 Payload
質量 260.00 kg
乾燥質量 248.00 kg
総質量 260.00 kg
長さ 0.20 m
直径 2.80 m
スパン 9.00 m
形状 Box + pan
製造者 SPXS
バスタイプ Starlink
フェーズステータス In Orbit
所有者/国 SPXS/US

Most Searched